CZ-6A DEB, 61277

Orbit data source: Space-Track

CZ-6A DEB, 61277 is space debris in LEO originally from a launch on Tue, 06 Aug 2024 UTC launched from the Taiyaun Space Center, China (TSC). Debris objects in space refer to the collection of defunct objects orbiting the Earth. Examples of debris include non-operational satellites, rocket bodies, and fragments generated from explosions, collisions, or faulty payload assembly.

Loading next visibility...
Identifier
61277, 2024-140SN
Orbit
LEO
Country
Flag of CNCN / PRC
Related business
Manufacturer
SAST
Mission
Spacecraft
Bus & Motor
Unknown
Mass
Unknown
Launch date (UTC)
2024-08-06 (2 years ago)
Launch vehicle
Unknown
Launch site
Taiyaun Space Center, China (TSC)
Object type
Payload
Rocket body
Debris
Shape & HBR
Unknown shape, 0.1 m
Radar Cross Section
Medium (>0.1 m² and <1 m²)

Expand to show TLE details & history
Last TLE update: 18 hours ago

TLE from 18 hours ago
0 CZ-6A DEB
1 61277U 24140SN  26171.09938115  .00003257  00000-0  88152-3 0  9991
2 61277  88.4281 224.4650 0085045 355.0711   4.9645 14.45389145 95469
Epoch: 2026-06-20T02:23Z
TLE epoch observation values (Epoch: 2026-06-20T02:23:06.531Z)
Latitude
-0.00008°
Longitude
-79.63108°
Altitude
683.51 km
Speed
7.546 km/s
True Right ascension
14h 57m 51s
True Declination
0° 00' 00"
Sunlit
Object was in full shadow at epoch
Visualization orbit readout
Latitude
Unknown
Longitude
Unknown
Altitude
Unknown
Speed
Unknown
Apparent Right ascension
Unknown
Apparent Declination
Unknown
Sunlit
N/A
Visualization observer readout
Local Sidereal Time
07:20:52
Azimuth
Unknown
Elevation
Unknown
Doppler factor
Unknown
Orbital elements
Apogee altitude
798.183 km
Perigee altitude
677.15 km
Semi-major axis
7,115.804 km
Eccentricity
0.0085
Inclination
88.4281°
RAAN
224.465°
Arg. of periapsis
355.0711°
True anomaly
5.04974°
Mean anomaly
4.9645°
Eccentric anomaly
5.00703°
Mean motion
3.61582 °/min
Orbital period
99.56 mins
BSTAR
0.00088152
Loading maneuver chart data...
Computing Atmospheric mass density...
Loading historical data...
Loading historical data...
Loading historical data...
Loading historical data...
Loading historical data...
Loading historical data...
Loading historical data...

Documentation

Showing up to 5 results
|